AAC-HSI-SAT1

导读 | 豆包AI

AAC‑HSI‑SAT1是一颗由英国(GB)于2023年4月15日08:00发射的人造卫星,进入近太阳同步轨道。作为AAC系列卫星的首星,它承载高光谱成像技术验证任务,旨在推进遥感观测技术发展,为后续同系列卫星积累工程经验。卫星运行近三年,已完成多项技术测试,为环境监测、资源勘探等领域的高光谱遥感应用提供了宝贵数据支持,推动小卫星高光谱成像技术的实用化进程。

基本信息
目录编号:
56225
目录名称:
AAC-HSI-SAT1
国际标识:
2023-054AZ
轨道中心:
EARTH
卫星名称:
AAC-HSI-SAT1
卫星全名:
--
卫星状态:
在轨 (已飞行1137 天)
发射日期:
2023-04-15 UTC
国别 :
英国 (GB)
星等 :
--
轨道信息
数据来源 国际轨道数据
星历时间: 2026-05-26T14:21:29+0800
8小时前
查看轨道信息
半长轴: 6906.923km
偏心率: 0.000934
轨道倾角: 97.372°
近地点辐角 191.135°
升交点赤经 23.392°
平近点角 168.968°
近地点: 522.334km
远地点: 535.238km
周期: 95.211分钟
每日圈数: 15.124322
详细信息
使用方式:
暂无
2D轨道图
3D轨道图
轨道高度分析图
轨道倾角分析图
轨道综合分析图
查看轨道综合分析图